Regional Weather Roundup
Issued by NWS Wakefield, VA

Home | Current Version | Previous Version | Text Only | Print | Product List | Glossary On
Versions: 1 2 3 4 5 6 7 8 9 10 11 12 13 14 15 16 17 18 19 20 21 22 23 24 25 26 27 28 29 30 31 32 33 34 35 36 37 38 39 40 41 42 43 44 45 46 47 48 49 50
000
ASUS41 KAKQ 062115
RWRAKQ

REGIONAL WEATHER ROUNDUP
NATIONAL WEATHER SERVICE WAKEFIELD VA
500 PM EDT WED MAY 06 2015

Note: "fair" indicates few or no clouds below 12,000 feet with no
significant weather and/or obstructions to visibility. * = Denotes
station may not report precipitation (e.g., rain,snow,etc.),
thunder or fog.

VAZ042-051-052>054-056-062200-
NORTHERN VIRGINIA

CITY           SKY/WX    TMP DP  RH WIND       PRES   REMARKS
WASH NATIONAL  PTSUNNY   80  63  55 E7        30.15F
DULLES         PTSUNNY   74  67  78 S6        30.15R
FORT BELVOIR   MOSUNNY   75  66  73 VRB1      30.14F
QUANTICO       PTSUNNY   78  64  61 SE5       30.15S THUNDER
FREDERICKSBRG* MOSUNNY   82  65  55 NE7       30.12S
STAFFORD*      PTSUNNY   76  60  57 NE8       30.19R
WARRENTON      TSTM      74  70  88 NE12      30.15R
CULPEPER*      PTSUNNY   78  64  63 E3        30.14R
MANASSAS*      PTSUNNY   72  64  78 SW6       30.15R
LEESBURG*      LGT RAIN  77  70  78 S12G17    30.15R
WINCHESTER     LGT RAIN  66  54  63 E12G22    30.16R
FRONT ROYAL*   MOCLDY    79  61  53 E3        30.11F
LURAY*         FAIR      79  63  57 S5        30.14S
$$

VAZ048-049-060>072-079>083-062200-
CENTRAL AND SOUTH CENTRAL VIRGINIA

CITY           SKY/WX    TMP DP  RH WIND       PRES   REMARKS
RICHMOND       CLOUDY    84  58  40 S7        30.12F
CHESTERFIELD*  FAIR      82  55  39 SE9       30.13F
PETERSBURG*    MOSUNNY   84  53  34 SE7       30.13S
HANOVER        SUNNY     83  60  45 SE5       30.13F
TAPPAHANNOCK*  SUNNY     83  56  40 E9        30.13F
QUINTON*       FAIR      83  60  45 S5        30.12F
CHARLOTTSVILLE SUNNY     83  62  49 CALM      30.12F
GORDONSVILLE*  FAIR      82  63  53 SE5       30.11F
ORANGE*        MOSUNNY   82  61  47 E6        30.14S
LOUISA*        MOSUNNY   84  63  48 E3        30.12S
BUMPASS*       FAIR      82  61  50 S3        30.12F
FARMVILLE*     MOSUNNY   88  56  33 E3        30.10F
CREWE*         FAIR      83  57  41 CALM      30.12F
FORT PICKETT*  FAIR      82  61  47 E6G16     30.12F
CHASE CITY*    FAIR      85  63  47 S5        30.13S
CLARKSVILLE*   FAIR      81  59  47 SE6       30.12F
SOUTH HILL*    PTSUNNY   81  59  47 S6        30.19F
LAWRENCEVILLE* FAIR      82  60  46 SE6       30.13F
EMPORIA*       PTSUNNY   81  55  41 E6        30.15F
$$

VAZ088>098-062200-
SOUTHEAST VIRGINIA

CITY           SKY/WX    TMP DP  RH WIND       PRES   REMARKS
NORFOLK        CLOUDY    78  56  46 S10       30.15F
VIRGINIA BEACH CLOUDY    76  58  53 SE9       30.16F
NORFOLK NAVAL  CLOUDY    83  58  42 S12       30.16F
WEST POINT*    MOSUNNY   84  52  32 SE9       30.15S
SALUDA*        FAIR      78  61  57 E9G17     30.14S
NEWPORT NEWS   PTSUNNY   83  59  44 E10       30.14F
LANGLEY AFB    PTSUNNY   78  60  54 E10       30.14F
FORT EUSTIS    PTSUNNY   80  59  48 S7        30.13S
WILLIAMSBURG*  MOSUNNY   86  61  42 SE8       30.15F
HR EXEC AP*    FAIR      81  57  44 SE9       30.17R
FRANKLIN*      PTSUNNY   79  55  43 SE8       30.15S
WAKEFIELD      MOSUNNY   83  58  42 S6        30.13F
$$

VAZ020-022-025-037-045-062200-
WEST CENTRAL AND SOUTHWEST VIRGINIA

CITY           SKY/WX    TMP DP  RH WIND       PRES   REMARKS
STAUNTON*      MOSUNNY   81  55  40 SE8       30.15F
WAYNESBORO*    FAIR      78  57  47 SE9       30.16F
HOT SPRINGS VA PTSUNNY   71  46  41 E7        30.26S
LYNCHBURG      PTSUNNY   73  66  78 CALM      30.14F
DANVILLE       MOSUNNY   84  56  38 VRB6      30.12F
SOUTH BOSTON*  FAIR      83  56  39 NE3       30.12F
MARTINSVILLE   PTSUNNY   83  56  39 SE3       30.16S
ROANOKE        PTSUNNY   83  56  39 E6        30.15F
BLACKSBURG     PTSUNNY   72  57  60 CALM      30.22F
DUBLIN*        MOSUNNY   76  55  47 CALM      30.20F
MARION*        LGT RAIN  67  56  68 CALM      30.25S
HILLSVILLE*    PTSUNNY   73  55  54 SE6       30.24S
RICHLANDS*     FAIR      76  55  47 SW7       30.19F
WISE*          CLOUDY    75  46  35 NE10      30.21F
ABINGDON*      PTSUNNY   79  52  38 SE9       30.17F
$$

MDZ021>025-VAZ099-100-062200-
SOUTHERN MARYLAND AND THE DELMARVA PENINSULA

CITY           SKY/WX    TMP DP  RH WIND       PRES   REMARKS
PATUXENT RIVER PTSUNNY   71  56  58 SE12      30.15F
BAY BRIDGE APT   N/A    N/A N/A N/A NW5       30.16F
LEONARDTOWN    SUNNY     75  57  53 CALM      30.17S
DOVER          SUNNY     69  57  65 E12       30.16F
GEORGETOWN     MOSUNNY   67  53  61 E13G20    30.20S
EASTON         MOSUNNY   79  59  50 SE9       30.19F
CAMBRIDGE      SUNNY     79  55  44 NE8       30.15F
SALISBURY      MOSUNNY   75  58  55 E12       30.17S
OCEAN CITY     MOSUNNY   60  53  77 NE10      30.21R
WALLOPS ISLAND MOSUNNY   70  58  65 S14       30.17F
ACCOMACK*      MOSUNNY   73  57  56 S12       30.16F
$$

NCZ012>017-030>032-062200-
NORTH CENTRAL AND EASTERN NORTH CAROLINA

CITY           SKY/WX    TMP DP  RH WIND       PRES   REMARKS
ROANOKE RAPIDS FAIR      79  57  47 SE7       30.15S
RALEIGH        PTSUNNY   81  56  42 SE9       30.15F
ELIZABETH CITY CLOUDY    72  56  57 SE12      30.18F
AHOSKIE*       PTSUNNY   76  56  48 SE8       30.17S
EDENTON*       CLOUDY    74  57  55 E8        30.17S
CURRITUCK*     CLOUDY    75  54  47 CALM      30.18S
KILL DEVIL HLS CLOUDY    69  55  62 E3        30.17F
MANTEO         CLOUDY    70  57  64 E6        30.18F
CAPE HATTERAS  CLOUDY    69  57  65 E7        30.17F
TARBORO*       FAIR      80  57  45 SE5       30.16S
GOLDSBORO      PTSUNNY   80  53  38 E9        30.12F
WASHINGTON     CLOUDY    73  56  55 SE7       30.17S
GREENVILLE     CLOUDY    77  57  50 SE8       30.17S
NEW BERN       CLOUDY    73  58  59 SE8       30.17S
WILMINGTON     CLOUDY    72  56  57 E12G23    30.14F
$$

VAZ048-062200-
ELSEWHERE

CITY           SKY/WX    TMP DP  RH WIND       PRES   REMARKS
HARRISBURG PA  CLOUDY    71  53  52 E9        30.19S
BALTIMORE      PTSUNNY   78  60  53 E12       30.15F
ANNAPOLIS      MOSUNNY   71  64  78 SE5       30.15F
ANDREWS AFB    MOSUNNY   76  62  61 SE9       30.14F
PHILADELPHIA   CLOUDY    74  49  41 E9        30.20F
HENDERSON NC   MOSUNNY   81  54  39 S6        30.14F
GREENSBORO     CLOUDY    81  54  39 S7        30.13F
ROCKY MOUNT    PTSUNNY   78  57  48 VRB6      30.15F
$$

VAZ100-062200-
MARINE

STATION/POSITION TIME  TEMP    WIND        PRES    WAVE   SWELL
                       AIR SEA DIR/SP/G            HT/PER HT/PER
                 (UTC) (F)     (DEG/KT/KT) (MB)    (FT/S) (FT/S)
BRANDYWINE LGT   2000   62 58   80/ 14/ 15 1022.5F
CAPE MAY NJ      2000   65 62   60/ 12/ 16 1022.0F
LEWES DE         2000   57 62   80/ 13/ 15 1022.9F
15NM E FENWICK I 2050   55 55              1022.5S   2/11
OCEAN-CITY-INLET 2000   59 58   60/  7/ 12 1022.3F
WACHAPREAGUE VA  2000   71 74  180/ 10/ 12 1021.7F
THOMAS POINT MD  2100   72 61   40/  2/  2 1021.7F
GOOSES REEF MD   2100   67 67                N/A     1/ 2
COVE POINT MD    2000   65     190/ 11/ 12 1022.0F
SOLOMONS ISLAND  2000      65                N/A
BISHOPS HEAD MD  2000   71 74  290/  2/  3 1021.1F
PINEY POINT MD   2000          140/ 10/ 11   N/A
CAMBRIDGE MD     2000   72 65  320/  7/  8 1021.0F
LEWISETTA VA     2000   68 69              1020.8F
RAPPAHANNOCK LGT 2000          190/  9/  9 1022.0F
YORK RVR RNG VA  2000   66     140/ 14/ 15 1020.7
YORKTOWN VA      2000          100/ 13/ 14 1020.7
JAMESTOWN VA     2100   77 68  150/  8/ 10 1019.7F
DOMINION TERM VA 2000   73      80/  9/ 11 1021.4F
KIPTOPEKE VA     2000      67  160/  8/ 10   N/A
CHES BAY BRIDGE  2000   71 62  110/  9/ 12 1021.1F
CAPE HENRY VA    2000   69     140/ 12/ 15 1020.5F
CHESAPEAKE LGHT  2000   65     160/ 14/ 14 1022.6F
WILLOUBY STN VA  2000   70      60/  7/  8 1021.8F
S CRANEY ISL VA  2000          230/  2/  4 1021.1
CAPE HENRY BUOY  2028      62                N/A     2/11
1ST LANDING BUOY 2100      63                N/A
CAPE CHARLES BUO 2026      62                N/A     2/ 9   2/ 9
OFFSHORE WE BUOY 2011      64                N/A     2/ 5   2/ 8
64NM E OF VA BCH 2050   66 63  140/  2/  2 1022.1F   2/ 7   2/ 7
DUCK PIER NC     2000   65 51  100/ 11/ 11 1021.4
44056 DUCK FRF   2011      58                N/A     2/11
OREGON INLET NC  2000   68 70   50/  8/ 10 1022.2F
HATTERAS NC      2000   71 68  100/  5/  9 1021.4F
DIAMOND SHLS NC  2050   72 74  100/ 14/ 16 1021.3F   4/ 8   3/ 8
CAPE LOOKOUT NC  2100   69      80/ 10/ 11 1020.3F
$$


USA.gov is the U.S. government's official web portal to all federal, state and local government web resources and services.